TimeEDT,TemperatureF,Dew PointF,Humidity,Sea Level PressureIn,VisibilityMPH,Wind Direction,Wind SpeedMPH,Gust SpeedMPH,PrecipitationIn,Events,Conditions,WindDirDegrees,DateUTC
12:54 AM,70.0,62.1,76,29.90,10.0,SSE,6.9,-,N/A,,Partly Cloudy,150,2013-05-20 04:54:00
1:54 AM,70.0,63.0,78,29.89,10.0,SSE,6.9,-,N/A,,Partly Cloudy,160,2013-05-20 05:54:00
2:54 AM,69.1,63.0,81,29.88,10.0,SSE,5.8,-,N/A,,Scattered Clouds,160,2013-05-20 06:54:00
3:54 AM,69.8,62.6,78,29.90,8.0,South,3.5,-,N/A,,Scattered Clouds,170,2013-05-20 07:54:00
4:54 AM,70.0,64.0,81,29.89,10.0,South,5.8,-,N/A,,Scattered Clouds,170,2013-05-20 08:54:00
5:54 AM,66.9,64.0,90,29.87,8.0,SE,8.1,-,N/A,,Partly Cloudy,130,2013-05-20 09:54:00
6:54 AM,69.1,66.0,90,29.89,8.0,SSE,9.2,-,N/A,,Partly Cloudy,160,2013-05-20 10:54:00
7:24 AM,69.8,66.2,88,29.93,6.0,South,9.2,-,N/A,,Mostly Cloudy,190,2013-05-20 11:24:00
7:54 AM,73.4,69.8,88,29.93,6.0,South,11.5,-,N/A,,Mostly Cloudy,190,2013-05-20 11:54:00
8:30 AM,73.4,69.8,88,29.93,7.0,SSW,12.7,-,N/A,,Mostly Cloudy,200,2013-05-20 12:30:00
8:54 AM,75.9,69.1,79,29.92,8.0,SSW,11.5,19.6,N/A,,Mostly Cloudy,200,2013-05-20 12:54:00
9:54 AM,77.0,68.0,74,29.93,8.0,SW,13.8,-,N/A,,Overcast,230,2013-05-20 13:54:00
10:22 AM,78.8,69.8,74,29.91,8.0,SSW,13.8,-,N/A,,Mostly Cloudy,210,2013-05-20 14:22:00
10:54 AM,79.0,68.0,69,29.91,9.0,SW,15.0,-,N/A,,Mostly Cloudy,220,2013-05-20 14:54:00
11:54 AM,80.1,68.0,67,29.91,10.0,SW,15.0,-,N/A,,Mostly Cloudy,220,2013-05-20 15:54:00
12:54 PM,84.9,66.9,55,29.90,10.0,SSW,15.0,-,N/A,,Mostly Cloudy,200,2013-05-20 16:54:00
1:54 PM,86.0,66.0,51,29.88,10.0,South,15.0,23.0,N/A,,Scattered Clouds,190,2013-05-20 17:54:00
2:54 PM,87.1,66.0,49,29.86,10.0,SSW,18.4,24.2,N/A,,Mostly Cloudy,200,2013-05-20 18:54:00
3:54 PM,86.0,64.9,49,29.85,10.0,South,19.6,25.3,N/A,,Scattered Clouds,180,2013-05-20 19:54:00
4:54 PM,88.0,64.0,45,29.84,10.0,SSW,25.3,32.2,N/A,,Mostly Cloudy,210,2013-05-20 20:54:00
5:54 PM,84.9,64.0,49,29.85,10.0,SSW,23.0,29.9,N/A,,Mostly Cloudy,210,2013-05-20 21:54:00
6:54 PM,84.0,64.0,51,29.84,10.0,SSW,19.6,28.8,N/A,,Mostly Cloudy,210,2013-05-20 22:54:00
7:54 PM,82.0,64.9,56,29.83,10.0,SSW,11.5,-,N/A,,Mostly Cloudy,210,2013-05-20 23:54:00
8:54 PM,80.1,63.0,56,29.82,10.0,SSW,11.5,-,N/A,,Mostly Cloudy,200,2013-05-21 00:54:00
9:54 PM,77.0,62.6,61,29.85,10.0,South,6.9,-,N/A,,Scattered Clouds,190,2013-05-21 01:54:00
10:54 PM,75.0,64.0,69,29.85,10.0,South,9.2,-,N/A,,Scattered Clouds,180,2013-05-21 02:54:00
11:54 PM,73.0,64.0,73,29.84,10.0,South,6.9,-,N/A,,Scattered Clouds,180,2013-05-21 03:54:00